DateTimeUTC,BaB_A11,BaG_A11,BaR_A11
2019-08-10 14:25:00,,,
2019-08-10 14:28:00,0000.09,0000.53,0000.00
2019-08-10 14:29:00,0000.70,0000.61,0000.03
2019-08-10 14:30:00,0000.31,0000.70,0000.28
2019-08-10 14:31:00,0000.44,0000.59,0000.33
2019-08-10 14:32:00,0001.45,0001.65,0000.80
2019-08-10 14:33:00,0001.36,0001.42,0001.09
2019-08-10 14:34:00,0000.88,0001.08,0000.62
2019-08-10 14:35:00,0000.73,0000.59,0000.43
2019-08-10 14:36:00,0000.83,0001.05,0000.45
2019-08-10 14:37:00,0000.54,0000.82,0000.60
2019-08-10 14:38:00,0000.56,0000.60,0000.10
2019-08-10 14:39:00,-000.27,-000.27,-000.22
2019-08-10 14:40:00,-000.15,0000.14,-000.57
2019-08-10 14:41:00,-000.15,-000.35,-000.08
2019-08-10 14:42:00,-000.30,-000.10,-000.36
2019-08-10 14:43:00,-000.19,-000.05,-000.03
2019-08-10 14:44:00,-000.20,-000.08,-000.30
2019-08-10 14:45:00,-000.10,-000.25,-000.22
2019-08-10 14:46:00,-000.15,0000.02,-000.06
2019-08-10 14:47:00,0000.17,-000.00,0000.05
2019-08-10 14:48:00,-000.18,-000.17,-000.40
2019-08-10 14:49:00,-000.18,-000.25,-000.08
2019-08-10 14:50:00,0000.04,0000.23,-000.05
2019-08-10 14:51:00,0000.11,-000.05,-000.06
2019-08-10 14:52:00,-000.45,-000.81,-000.50
2019-08-10 14:53:00,-000.90,-000.92,-000.86
2019-08-10 14:54:00,0021.99,0018.72,0014.03
2019-08-10 14:55:00,-000.00,-000.24,-000.42
2019-08-10 14:56:00,0000.02,-000.03,0000.15
2019-08-10 14:57:00,0000.04,0000.03,-000.19
2019-08-10 14:58:00,0000.22,-000.20,-000.15
2019-08-10 14:59:00,-000.01,0000.25,-000.06
2019-08-10 15:00:00,0000.11,0000.10,0000.08
2019-08-10 15:01:00,-000.01,-000.26,-000.12
2019-08-10 15:02:00,0000.00,-000.10,-000.11
2019-08-10 15:03:00,-000.05,0000.05,-000.08
2019-08-10 15:04:00,0000.61,0000.56,0000.37
2019-08-10 15:05:00,0000.71,0000.46,0000.46
2019-08-10 15:06:00,0000.91,0000.94,0000.48
2019-08-10 15:07:00,0000.90,0000.62,0000.65
2019-08-10 15:08:00,0000.70,0000.56,0000.45
2019-08-10 15:09:00,0001.53,0001.27,0001.02
2019-08-10 15:10:00,0018.07,0015.46,0011.28
2019-08-10 15:11:00,0015.93,0013.43,0009.89
2019-08-10 15:12:00,0009.78,0008.43,0006.30
2019-08-10 15:13:00,0009.31,0008.00,0005.98
2019-08-10 15:14:00,0012.28,0010.37,0007.52
2019-08-10 15:15:00,0005.49,0004.91,0003.80
2019-08-10 15:16:00,0008.99,0007.61,0005.73
2019-08-10 15:17:00,0007.10,0006.07,0004.57
2019-08-10 15:18:00,0004.44,0003.55,0003.00
2019-08-10 15:19:00,-000.35,-000.52,0000.01
2019-08-10 15:20:00,-000.28,-000.14,-000.30
2019-08-10 15:21:00,-000.23,-000.49,-000.23
2019-08-10 15:22:00,-000.09,-000.43,-000.13
2019-08-10 15:23:00,-000.30,-000.13,-000.34
2019-08-10 15:24:00,0000.04,-000.08,-000.02
2019-08-10 15:25:00,-000.29,-000.50,-000.53
2019-08-10 15:26:00,-001.13,-001.15,-000.72
2019-08-10 15:27:00,-001.02,-000.84,-000.82
2019-08-10 15:28:00,-000.56,-000.56,-000.43
2019-08-10 15:29:00,-000.36,-000.35,-000.19
2019-08-10 15:30:00,-000.16,-000.30,-000.09
2019-08-10 15:31:00,-000.22,-000.33,-000.24
2019-08-10 15:32:00,0000.15,0000.29,0000.44
2019-08-10 15:33:00,-000.11,-000.47,-000.09
2019-08-10 15:34:00,0000.66,0000.61,0000.47
2019-08-10 15:35:00,0000.56,0000.26,0000.44
2019-08-10 15:36:00,0000.25,0000.09,0000.08
2019-08-10 15:37:00,0000.08,0000.12,0000.12
2019-08-10 15:38:00,0000.36,0000.20,0000.09
2019-08-10 15:39:00,0000.65,0000.69,0000.41
2019-08-10 15:40:00,-000.20,-000.36,-000.26
2019-08-10 15:41:00,0000.16,0000.06,0000.05
2019-08-10 15:42:00,-000.03,-000.02,-000.06
2019-08-10 15:43:00,-002.64,0001.75,0000.87
2019-08-10 15:43:02,-002.64,0001.75,0000.87
2019-08-10 15:43:19,0000.32,0003.49,0001.84
2019-08-10 15:43:21,0000.32,0003.49,0001.84
2019-08-10 15:43:58,0000.33,0003.50,0001.85
2019-08-10 15:44:00,0000.48,0000.24,0000.13
2019-08-10 15:45:00,0000.82,0000.56,0000.34
2019-08-10 15:46:00,0000.39,0000.16,-000.09
2019-08-10 15:47:00,0000.22,0000.14,0000.14
2019-08-10 15:48:00,0000.14,0000.08,-000.37
2019-08-10 15:49:00,0000.03,-000.01,-000.19
2019-08-10 15:50:00,0000.27,0000.01,-000.15
2019-08-10 15:51:00,0001.21,0001.04,0000.51
2019-08-10 15:53:00,0003.48,0004.30,0002.36
2019-08-10 15:53:36,0003.54,0004.35,0002.40
2019-08-10 15:54:00,-000.21,0000.17,-000.06
2019-08-10 15:55:00,-001.84,-001.18,-001.22
2019-08-10 15:56:00,-001.08,-000.65,-000.61
2019-08-10 15:57:00,-000.63,-000.47,-000.36
2019-08-10 15:58:00,-000.44,-000.39,-000.17
2019-08-10 15:59:00,-000.84,-000.58,-000.45
2019-08-10 16:00:00,-000.83,-000.58,-000.59
2019-08-10 16:02:00,-001.67,-000.98,-000.96
2019-08-10 16:02:06,-001.67,-000.98,-000.96
2019-08-10 16:03:00,-000.18,0000.14,0000.17
2019-08-10 16:04:00,-000.97,-000.77,-000.71
2019-08-10 16:05:00,-000.76,-000.66,-000.74
2019-08-10 16:06:00,-000.00,-000.00,-000.07
2019-08-10 16:07:00,-000.11,-000.02,-000.19
2019-08-10 16:08:00,-000.03,-000.19,-000.03
2019-08-10 16:09:00,0000.01,0000.09,-000.11
2019-08-10 16:10:00,-000.05,-000.27,-000.13
2019-08-10 16:11:00,0000.53,0000.39,0000.16
2019-08-10 16:12:00,0001.22,0001.28,0001.15
2019-08-10 16:13:00,0004.10,0003.08,0002.33
2019-08-10 16:14:00,0000.04,-000.54,-000.83
2019-08-10 16:15:00,0000.61,0000.32,0000.45
2019-08-10 16:16:00,0000.32,0000.15,-000.13
2019-08-10 16:18:00,-003.43,-003.38,-001.93
2019-08-10 16:18:38,-003.40,-003.36,-001.92
2019-08-10 16:19:00,-001.75,-000.73,-000.63
2019-08-10 16:20:00,-000.73,-000.46,-000.13
2019-08-10 16:21:00,-000.83,-000.47,-000.07
2019-08-10 16:22:00,-000.87,-000.57,-000.56
2019-08-10 16:23:00,-000.20,-000.05,-000.15
2019-08-10 16:24:00,0000.00,0000.03,0000.02
2019-08-10 16:25:00,0000.21,0000.47,0000.44
2019-08-10 16:26:00,-000.19,-000.03,-000.09
2019-08-10 16:26:57,-000.20,-000.03,-000.09
2019-08-10 16:27:00,,,
2019-08-10 16:28:00,0002.09,0002.28,0001.85
2019-08-10 16:29:00,0003.19,0002.51,0001.91
2019-08-10 16:30:00,0001.50,0001.12,0000.98
2019-08-10 16:31:00,0002.08,0001.74,0001.15
2019-08-10 16:32:00,0001.19,0001.15,0000.67
2019-08-10 16:33:00,0001.47,0001.07,0000.70
2019-08-10 16:34:00,0003.93,0003.05,0002.21
2019-08-10 16:35:00,0002.42,0001.81,0001.31
2019-08-10 16:36:00,-000.43,-000.46,-000.69
2019-08-10 16:37:15,,,
2019-08-10 16:37:18,-002.43,-002.72,-000.91
2019-08-10 16:37:55,-002.38,-002.70,-000.91
2019-08-10 16:38:00,-001.72,-000.99,-000.77
2019-08-10 16:39:00,-001.27,-000.73,-000.63
2019-08-10 16:40:00,-000.95,-000.58,-000.42
2019-08-10 16:41:00,-000.46,-000.22,-000.10
2019-08-10 16:42:00,-000.39,-000.36,-000.20
2019-08-10 16:43:00,-002.17,-002.01,-002.01
2019-08-10 16:44:00,0000.04,0000.30,0000.14
2019-08-10 16:45:00,0000.32,0000.43,0000.33
2019-08-10 16:46:00,0000.38,0000.31,0000.25
2019-08-10 16:47:00,-000.05,0000.14,-000.04
2019-08-10 16:48:00,0000.22,0000.14,0000.18
2019-08-10 16:49:00,0000.42,0000.48,0000.23
2019-08-10 16:50:00,0000.69,0000.74,0000.63
2019-08-10 16:51:00,0000.40,0000.34,0000.27
2019-08-10 16:52:00,0000.09,0000.20,0000.17
2019-08-10 16:53:00,0000.70,0000.43,0000.33
2019-08-10 16:54:00,0000.79,0000.86,0000.70
2019-08-10 16:55:00,0000.55,0000.48,0000.41
2019-08-10 16:56:00,0000.32,0000.42,0000.27
2019-08-10 16:57:00,0000.17,0000.13,0000.12
2019-08-10 16:58:00,0000.31,0000.41,0000.30
2019-08-10 16:59:00,0000.36,0000.47,0000.34
2019-08-10 17:00:00,0000.14,0000.15,0000.08
2019-08-10 17:01:00,0000.24,0000.35,0000.10
2019-08-10 17:02:00,0000.13,0000.21,0000.15
2019-08-10 17:03:00,0000.19,0000.36,0000.22
2019-08-10 17:04:00,0000.19,0000.30,0000.13
2019-08-10 17:05:00,0000.71,0000.78,0000.69
2019-08-10 17:06:00,0000.75,0000.71,0000.42
2019-08-10 17:07:00,0000.82,0000.87,0000.71
2019-08-10 17:08:00,0000.51,0000.57,0000.58
2019-08-10 17:09:00,0000.55,0000.59,0000.38
2019-08-10 17:11:00,-000.99,-000.32,-000.32
2019-08-10 17:11:19,-000.97,-000.31,-000.31
2019-08-10 17:12:00,-001.15,-000.68,-000.54
2019-08-10 17:13:00,-000.67,-000.55,-000.45
2019-08-10 17:14:00,0000.69,0000.71,0000.50
2019-08-10 17:15:00,0000.04,0000.20,-000.04
2019-08-10 17:16:00,0001.04,0000.88,0000.53
2019-08-10 17:17:00,0001.18,0000.85,0000.89
2019-08-10 17:18:00,0001.10,0000.90,0000.80
2019-08-10 17:19:00,0003.10,0002.69,0002.13
2019-08-10 17:20:00,0003.71,0002.88,0002.24
2019-08-10 17:21:00,0001.13,0000.74,0001.29
2019-08-10 17:22:00,-000.23,-000.50,-000.30
2019-08-10 17:23:00,0000.16,-000.19,0000.12
2019-08-10 17:24:00,-000.05,-000.07,-000.05
2019-08-10 17:25:00,0000.12,-000.09,0000.09
2019-08-10 17:26:00,0000.18,-000.05,-000.10
2019-08-10 17:27:00,0000.01,0000.00,-000.12
2019-08-10 17:28:00,-000.21,-000.46,-000.22
2019-08-10 17:29:00,-000.84,-000.81,-000.63
2019-08-10 17:30:00,-000.51,-000.35,-000.42
2019-08-10 17:31:00,-000.35,-000.50,-000.10
2019-08-10 17:32:00,-000.17,-000.02,-000.27
2019-08-10 17:33:00,-000.18,-000.28,-000.23
2019-08-10 17:34:00,0000.26,-000.00,0000.10
2019-08-10 17:35:00,-000.17,-000.04,-000.15
2019-08-10 17:36:00,-000.13,-000.04,0000.12
2019-08-10 17:37:00,-000.09,0000.03,-000.13
2019-08-10 17:38:00,0000.07,-000.18,-000.05
2019-08-10 17:39:00,0000.02,0000.16,0000.00
2019-08-10 17:40:00,-000.08,0000.15,0000.07
2019-08-10 17:41:00,0000.09,-000.12,0000.01
2019-08-10 17:42:00,0000.02,0000.05,-000.10
2019-08-10 17:43:00,-000.04,-000.08,0000.02
2019-08-10 17:44:00,0000.17,0000.06,0000.09
2019-08-10 17:45:00,-000.26,-000.14,-000.11
2019-08-10 17:46:00,,,
2019-08-10 17:47:00,-002.83,-003.30,-003.85
2019-08-10 17:48:00,-000.09,-000.10,0000.13
2019-08-10 17:49:00,-000.19,-000.08,-000.13
2019-08-10 17:50:00,0000.09,0000.09,0000.04
2019-08-10 17:51:00,0000.10,-000.11,-000.14
2019-08-10 17:52:00,-000.05,0000.15,0000.21
2019-08-10 17:53:00,-000.07,-000.07,-000.15
2019-08-10 17:54:00,-000.03,0000.06,0000.06
2019-08-10 17:55:00,-000.02,-000.05,-000.02
2019-08-10 17:56:00,0000.06,-000.05,-000.05
2019-08-10 17:57:00,0000.06,0000.05,-000.04
2019-08-10 17:57:30,0000.06,0000.05,-000.03
2019-08-10 18:04:00,-000.57,-001.07,-000.74
2019-08-10 18:04:27,-000.57,-001.07,-000.74
2019-08-10 18:05:00,-000.94,-000.71,-000.83
2019-08-10 18:06:00,-000.76,-000.46,-000.45
2019-08-10 18:07:00,-000.77,-000.42,-000.46
2019-08-10 18:08:00,-000.40,-000.63,-000.35
2019-08-10 18:09:00,-000.41,-000.09,-000.26
